Location: ????????
(54.9045°N, 39.1041°E)
Time: 12:48:48
(UTC+00:00)

Cosmos 1340 Rocket - Pass Details

Date: 14 April 2024
Orbit: 507 x 543 km, 81.2° (Epoch: 21 May)

Event Time Altitude Azimuth Distance (km) Brightness Sun altitude
Exits shadow 00:34:11 - 165° (SSE) 2,269 5.7 -14.3°
Reaches altitude 10° 00:35:33 10° 159° (SSE) 1,744 5.2 -14.2°
Maximum altitude 00:39:01 33° 94° (E) 887 4.3 -13.8°
Drops below altitude 10° 00:42:32 10° 29° (NNE) 1,777 6.6 -13.4°
Sets 00:44:50 0° 21° (NNE) 2,679 7.4 -13.1°
